Location: Newark
(52.6425°N, 14.9139°E)
Time: 16:18:36
(UTC+00:00)

N. Korean satellite - Visible Passes

Search period start: 30 September 2020 00:00
Search period end: 10 October 2020 00:00
Orbit: 455 x 503 km, 97.2° (Epoch: 29 September)

Date Brightness Start Highest point End Pass type
(mag) Time Alt. Az. Time Alt. Az. Time Alt. Az.
01 Oct 8.3 04:15:36 10° NNE 04:19:01 38° E 04:22:21 10° SSE visible
02 Oct 9.6 03:50:00 10° NE 03:52:47 21° E 03:55:31 10° SE visible
03 Oct 10.2 03:25:13 10° ENE 03:26:28 11° E 03:27:42 10° ESE visible
04 Oct 7.4 04:30:41 10° NNE 04:34:14 56° E 04:37:43 10° S visible
05 Oct 8.9 04:04:53 10° NNE 04:08:04 29° E 04:11:11 10° SSE visible
06 Oct 9.8 03:39:29 10° NE 03:41:47 16° E 03:44:02 10° SE visible
07 Oct 10.6 17:02:16 10° WSW 17:03:38 12° W 17:05:00 10° WNW visible
08 Oct 8.0 04:19:50 10° NNE 04:23:15 42° E 04:26:36 10° S visible
09 Oct 9.3 03:54:09 10° NE 03:57:01 22° E 03:59:49 10° SSE visible
